When you browse on this site, cookies collect data to enhance your experience and personalize the content and advertising you see.
Visit our Privacy Policy to learn more. By continuing to use the site, you agree to this use of cookies and data.
  • In Spain
  • List of Countries
  • For 7 days
  • Water Temperature
  • Satellite Maps
  • Weather Map
  • Weather Widgets
  • user-avatar
    Login

    Hourly Weather Djelfa

    Today, 14 December, Friday

    Time Temperature Precipitation Wind Pressure Humidity
    00:00 +3°C° 0.2 mm 12 mps 659 mmHg 65%
    01:00 +2°C° 0.1 mm 12 mps 659 mmHg 66%
    02:00 +2°C° 0.1 mm 12 mps 659 mmHg 68%
    03:00 0°C° 0.1 mm 12 mps 658 mmHg 69%
    04:00 0°C° 0.2 mm 12 mps 658 mmHg 71%
    05:00 0°C° 0.2 mm 13 mps 658 mmHg 72%
    06:00 0°C° 0.2 mm 14 mps 658 mmHg 74%
    07:00 +1°C° 0.3 mm 16 mps 658 mmHg 72%
    08:00 +1°C° 0.3 mm 17 mps 658 mmHg 70%
    09:00 +1°C° 0.3 mm 19 mps 658 mmHg 68%
    10:00 +2°C° 0.1 mm 19 mps 659 mmHg 65%
    11:00 +3°C° 0.1 mm 19 mps 659 mmHg 63%
    12:00 +5°C° 0.1 mm 19 mps 660 mmHg 61%
    13:00 +3°C° 0.3 mm 19 mps 660 mmHg 64%
    14:00 +3°C° 0.3 mm 19 mps 660 mmHg 66%
    15:00 +3°C° 0.3 mm 19 mps 661 mmHg 69%
    16:00 +2°C° 0 mm 18 mps 661 mmHg 72%
    17:00 +2°C° 0 mm 16 mps 662 mmHg 75%
    18:00 +2°C° 0 mm 15 mps 663 mmHg 78%
    19:00 +3°C° 0 mm 13 mps 663 mmHg 80%
    20:00 +2°C° 0 mm 12 mps 664 mmHg 81%
    21:00 +2°C° 0 mm 11 mps 665 mmHg 83%
    22:00 +2°C° 0.1 mm 11 mps 665 mmHg 82%
    23:00 +2°C° 0.1 mm 10 mps 665 mmHg 81%

    Tomorrow, 15 December, Saturday

    Time Temperature Precipitation Wind Pressure Humidity
    00:00 +2°C° 0.1 mm 10 mps 666 mmHg 81%
    01:00 +2°C° 0 mm 10 mps 666 mmHg 82%
    02:00 +2°C° 0 mm 10 mps 666 mmHg 83%
    03:00 +1°C° 0 mm 9 mps 666 mmHg 85%
    04:00 +1°C° 0 mm 9 mps 666 mmHg 86%
    05:00 +1°C° 0 mm 9 mps 666 mmHg 88%
    06:00 +1°C° 0 mm 8 mps 667 mmHg 89%
    07:00 +1°C° 0 mm 8 mps 667 mmHg 85%
    08:00 +2°C° 0 mm 8 mps 668 mmHg 81%
    09:00 +2°C° 0 mm 8 mps 668 mmHg 77%
    10:00 +4°C° 0 mm 8 mps 668 mmHg 72%
    11:00 +5°C° 0 mm 8 mps 668 mmHg 66%
    12:00 +6°C° 0 mm 8 mps 669 mmHg 61%
    13:00 +6°C° 0 mm 8 mps 668 mmHg 58%
    14:00 +7°C° 0 mm 8 mps 668 mmHg 56%
    15:00 +8°C° 0 mm 7 mps 668 mmHg 54%
    16:00 +6°C° 0 mm 7 mps 668 mmHg 57%
    17:00 +5°C° 0 mm 6 mps 668 mmHg 59%
    18:00 +6°C° 0 mm 5 mps 668 mmHg 62%
    19:00 +5°C° 0 mm 5 mps 668 mmHg 62%
    20:00 +5°C° 0 mm 4 mps 668 mmHg 63%
    21:00 +5°C° 0 mm 4 mps 669 mmHg 64%
    22:00 +5°C° 0 mm 3 mps 668 mmHg 64%
    23:00 +4°C° 0 mm 3 mps 668 mmHg 64%

    Day after tomorrow, 16 December, Sunday

    Time Temperature Precipitation Wind Pressure Humidity
    00:00 +5°C° 0 mm 2 mps 668 mmHg 64%
    01:00 +4°C° 0 mm 3 mps 668 mmHg 62%
    02:00 +4°C° 0 mm 3 mps 668 mmHg 61%
    03:00 +4°C° 0 mm 3 mps 668 mmHg 60%
    04:00 +4°C° 0 mm 3 mps 668 mmHg 59%
    05:00 +4°C° 0 mm 3 mps 668 mmHg 59%
    06:00 +4°C° 0 mm 3 mps 668 mmHg 58%
    07:00 +7°C° 0 mm 3 mps 668 mmHg 54%
    08:00 +8°C° 0 mm 2 mps 669 mmHg 49%
    09:00 +9°C° 0 mm 2 mps 670 mmHg 45%
    10:00 +12°C° 0 mm 2 mps 670 mmHg 42%
    11:00 +13°C° 0 mm 3 mps 670 mmHg 38%
    12:00 +14°C° 0 mm 3 mps 670 mmHg 34%
    13:00 +16°C° 0 mm 3 mps 670 mmHg 34%
    14:00 +16°C° 0 mm 3 mps 670 mmHg 33%
    15:00 +17°C° 0 mm 3 mps 669 mmHg 32%
    16:00 +14°C° 0 mm 3 mps 669 mmHg 36%
    17:00 +13°C° 0 mm 2 mps 669 mmHg 40%
    18:00 +12°C° 0 mm 2 mps 669 mmHg 44%
    19:00 +10°C° 0 mm 2 mps 669 mmHg 45%
    20:00 +10°C° 0 mm 2 mps 669 mmHg 46%
    21:00 +9°C° 0 mm 2 mps 669 mmHg 46%
    22:00 +9°C° 0 mm 2 mps 669 mmHg 47%
    23:00 +9°C° 0 mm 2 mps 669 mmHg 47%

    17 December, Monday

    Time Temperature Precipitation Wind Pressure Humidity
    00:00 +8°C° 0 mm 2 mps 669 mmHg 48%
    01:00 +8°C° 0 mm 2 mps 669 mmHg 48%
    02:00 +8°C° 0 mm 2 mps 668 mmHg 49%
    03:00 +8°C° 0 mm 3 mps 668 mmHg 50%
    04:00 +8°C° 0 mm 3 mps 668 mmHg 52%
    05:00 +7°C° 0 mm 3 mps 668 mmHg 54%
    06:00 +7°C° 0 mm 3 mps 668 mmHg 56%
    07:00 +8°C° 0 mm 3 mps 669 mmHg 53%
    08:00 +10°C° 0 mm 3 mps 669 mmHg 49%
    09:00 +11°C° 0 mm 3 mps 670 mmHg 46%
    10:00 +12°C° 0 mm 4 mps 670 mmHg 44%
    11:00 +13°C° 0 mm 4 mps 670 mmHg 43%
    12:00 +14°C° 0 mm 4 mps 670 mmHg 41%
    13:00 +14°C° 0 mm 4 mps 670 mmHg 41%
    14:00 +14°C° 0 mm 4 mps 669 mmHg 42%
    15:00 +14°C° 0 mm 4 mps 669 mmHg 43%
    16:00 +13°C° 0 mm 3 mps 669 mmHg 50%
    17:00 +12°C° 0 mm 3 mps 669 mmHg 57%
    18:00 +10°C° 0 mm 2 mps 669 mmHg 64%
    19:00 +10°C° 0 mm 2 mps 669 mmHg 68%
    20:00 +9°C° 0 mm 2 mps 669 mmHg 73%
    21:00 +10°C° 0 mm 1 mps 670 mmHg 77%
    22:00 +9°C° 0 mm 1 mps 669 mmHg 80%
    23:00 +9°C° 0 mm 1 mps 669 mmHg 82%

    18 December, Tuesday

    Time Temperature Precipitation Wind Pressure Humidity
    00:00 +8°C° 0 mm 1 mps 669 mmHg 85%
    01:00 +8°C° 0 mm 1 mps 669 mmHg 86%
    02:00 +7°C° 0 mm 1 mps 669 mmHg 86%
    03:00 +7°C° 0 mm 1 mps 668 mmHg 87%
    04:00 +7°C° 0 mm 1 mps 668 mmHg 87%
    05:00 +5°C° 0 mm 0 mps 668 mmHg 87%
    06:00 +5°C° 0 mm 0 mps 668 mmHg 87%
    07:00 +7°C° 0 mm 0 mps 669 mmHg 80%
    08:00 +9°C° 0 mm 1 mps 670 mmHg 73%
    09:00 +11°C° 0 mm 1 mps 671 mmHg 65%
    10:00 +12°C° 0 mm 1 mps 671 mmHg 58%
    11:00 +13°C° 0 mm 1 mps 671 mmHg 50%
    12:00 +15°C° 0 mm 1 mps 671 mmHg 42%
    13:00 +15°C° 0 mm 2 mps 671 mmHg 40%
    14:00 +15°C° 0 mm 2 mps 671 mmHg 38%
    15:00 +16°C° 0 mm 2 mps 670 mmHg 36%
    16:00 +14°C° 0 mm 2 mps 670 mmHg 42%
    17:00 +13°C° 0 mm 2 mps 670 mmHg 48%
    18:00 +10°C° 0 mm 2 mps 670 mmHg 54%
    19:00 +10°C° 0 mm 2 mps 670 mmHg 56%
    20:00 +9°C° 0 mm 2 mps 670 mmHg 59%
    21:00 +9°C° 0 mm 3 mps 671 mmHg 62%
    22:00 +9°C° 0 mm 3 mps 671 mmHg 64%
    23:00 +8°C° 0 mm 3 mps 670 mmHg 67%

    19 December, Wednesday

    Time Temperature Precipitation Wind Pressure Humidity
    00:00 +8°C° 0 mm 3 mps 670 mmHg 70%
    01:00 +7°C° 0 mm 3 mps 670 mmHg 71%
    02:00 +7°C° 0 mm 3 mps 670 mmHg 72%
    03:00 +6°C° 0 mm 2 mps 670 mmHg 73%
    04:00 +6°C° 0 mm 2 mps 670 mmHg 73%
    05:00 +6°C° 0 mm 2 mps 670 mmHg 73%
    06:00 +6°C° 0 mm 2 mps 670 mmHg 73%
    07:00 +7°C° 0 mm 2 mps 670 mmHg 66%
    08:00 +8°C° 0 mm 3 mps 671 mmHg 59%
    09:00 +9°C° 0 mm 3 mps 671 mmHg 53%
    10:00 +11°C° 0 mm 3 mps 671 mmHg 47%
    11:00 +13°C° 0 mm 4 mps 671 mmHg 40%
    12:00 +14°C° 0 mm 5 mps 671 mmHg 34%
    13:00 +14°C° 0 mm 5 mps 671 mmHg 34%
    14:00 +15°C° 0 mm 5 mps 670 mmHg 33%
    15:00 +15°C° 0 mm 5 mps 670 mmHg 32%
    16:00 +13°C° 0 mm 4 mps 669 mmHg 36%
    17:00 +12°C° 0 mm 3 mps 669 mmHg 40%
    18:00 +10°C° 0 mm 3 mps 669 mmHg 44%
    19:00 +10°C° 0 mm 3 mps 669 mmHg 46%
    20:00 +9°C° 0 mm 3 mps 669 mmHg 48%
    21:00 +9°C° 0 mm 3 mps 669 mmHg 49%
    22:00 +8°C° 0 mm 3 mps 669 mmHg 49%
    23:00 +8°C° 0 mm 3 mps 668 mmHg 49%
    Show more